Regional Weather Roundup
Issued by NWS

Home | Current Version | Previous Version | Text Only | Print | Product List | Glossary Off
Versions: 1 2 3 4 5 6 7 8 9 10 11 12 13 14 15 16 17 18 19 20 21 22 23 24 25 26 27 28 29 30 31 32 33 34 35 36 37 38 39 40 41 42 43 44 45 46 47 48 49 50

000
ASUS43 KLSX 230007
RWRMO

WEATHER SUMMARY FOR MISSOURI
NATIONAL WEATHER SERVICE SPRINGFIELD MO
700 PM CDT MON SEP 22 2014

NOTE: "FAIR" INDICATES FEW OR NO CLOUDS BELOW 12,000 FEET WITH NO
       SIGNIFICANT WEATHER AND/OR OBSTRUCTIONS TO VISIBILITY.
       CURRENT SKY AND/OR WEATHER CONDITIONS ARE NOT AVAILABLE FOR
       CHILLICOTHE AND FARMINGTON.

MOZ001>031-035>038-043-044-053-054-230100-
...NORTHERN AND WESTERN MISSOURI...

CITY           SKY/WX    TMP DP  RH WIND       PRES   REMARKS
KANSAS CTY INT MOCLDY    66  53  63 S5        30.22S
6HR MIN TEMP:  66; 6HR MAX TEMP:  73;

KANSAS C DTWN  PTCLDY    71  50  47 SE5       30.21S
6HR MIN TEMP:  71; 6HR MAX TEMP:  77;

LEE`S SUMMIT   CLEAR     70  51  51 SE3       30.23S
6HR MIN TEMP:  68; 6HR MAX TEMP:  74;

ST JOSEPH      PTCLDY    67  54  63 SE8       30.21S
6HR MIN TEMP:  67; 6HR MAX TEMP:  76;

CHILLICOTHE      N/A     65  55  70 CALM      30.24S
6HR MIN TEMP:  65; 6HR MAX TEMP:  75;

KIRKSVILLE     PTCLDY    63  53  70 CALM      30.25S
6HR MIN TEMP:  63; 6HR MAX TEMP:  73;


$$
MOZ066>068-077>081-088>096-101>105-230100-
...SOUTHWEST MISSOURI...

CITY           SKY/WX    TMP DP  RH WIND       PRES   REMARKS
SPRINGFIELD    CLEAR     70  48  45 NE6       30.22S
6HR MIN TEMP:  69; 6HR MAX TEMP:  75;

JOPLIN         PTCLDY    70  52  52 SE3       30.22S
6HR MIN TEMP:  69; 6HR MAX TEMP:  75;


$$
MOZ032>034-039>042-045>050-055>058-069>072-230100-
...CENTRAL MISSOURI...

CITY           SKY/WX    TMP DP  RH WIND       PRES   REMARKS
COLUMBIA       CLEAR     66  51  58 NE6       30.23F
6HR MIN TEMP:  66; 6HR MAX TEMP:  73;

JEFFERSON CITY CLEAR     68  49  50 SE3       30.22S
6HR MIN TEMP:  68; 6HR MAX TEMP:  75;

ROLLA          CLEAR     65  48  54 NE3       30.22F
6HR MIN TEMP:  65; 6HR MAX TEMP:  73;

SEDALIA        CLEAR     70  51  51 CALM      30.24S
6HR MIN TEMP:  70; 6HR MAX TEMP:  76;

WHITEMAN AFB   CLEAR     69  53  57 E2        30.22F
OSAGE BEACH    CLEAR     64  52  63 CALM      30.23S

$$
MOZ051-052-059>065-230100-
...EAST CENTRAL MISSOURI...

CITY           SKY/WX    TMP DP  RH WIND       PRES   REMARKS
ST LOUIS INTL  PTCLDY    70  46  42 N3        30.23S
6HR MIN TEMP:  70; 6HR MAX TEMP:  75;

SPIRIT OF STL  PTCLDY    62  53  72 CALM      30.22S
6HR MIN TEMP:  62; 6HR MAX TEMP:  73;

ST CHARLES     CLEAR     69  47  45 CALM      30.22S HAZE
6HR MIN TEMP:  69; 6HR MAX TEMP:  74;


$$
MOZ072>076-082>087-097>100-106>115-230100-
...SOUTH CENTRAL AND SOUTHEAST MISSOURI...

CITY           SKY/WX    TMP DP  RH WIND       PRES   REMARKS
CAPE GIRARDEAU CLEAR     64  50  60 NE7       30.21S
6HR MIN TEMP:  64; 6HR MAX TEMP:  74;

FARMINGTON     CLEAR     66  46  48 N3        30.25S
6HR MIN TEMP:  66; 6HR MAX TEMP:  73;

POPLAR BLUFF   CLEAR     67  50  54 NE3       30.19S
6HR MIN TEMP:  67; 6HR MAX TEMP:  76;

WEST PLAINS    CLEAR     66  50  56 NE3       30.23S
6HR MIN TEMP:  66; 6HR MAX TEMP:  75;


$$



USA.gov is the U.S. government's official web portal to all federal, state and local government web resources and services.